Time,TemperatureF,DewpointF,PressureIn,WindDirection,WindDirectionDegrees,WindSpeedMPH,WindSpeedGustMPH,Humidity,HourlyPrecipIn,Conditions,Clouds,dailyrainin,SoftwareType,DateUTC
2013-10-09 00:02:00,53.6,48.0,30.12,SE,140,3.0,6.0,81,0.00,,,0.00,weatherlink.com 1.10,2013-10-09 05:02:00,
2013-10-09 00:17:00,53.3,48.0,30.12,ESE,120,5.0,7.0,83,0.00,,,0.00,weatherlink.com 1.10,2013-10-09 05:17:00,
2013-10-09 00:32:00,53.2,48.0,30.12,SSE,151,4.0,7.0,82,0.00,,,0.00,weatherlink.com 1.10,2013-10-09 05:32:00,
2013-10-09 00:47:00,53.3,48.0,30.12,SE,129,4.0,8.0,82,0.00,,,0.00,weatherlink.com 1.10,2013-10-09 05:47:00,
2013-10-09 01:02:00,52.8,48.0,30.11,SE,136,4.0,8.0,83,0.00,,,0.00,weatherlink.com 1.10,2013-10-09 06:02:00,
2013-10-09 01:17:00,52.6,47.0,30.11,SE,145,2.0,6.0,82,0.00,,,0.00,weatherlink.com 1.10,2013-10-09 06:17:00,
2013-10-09 01:32:00,52.1,47.0,30.12,SE,141,1.0,5.0,83,0.00,,,0.00,weatherlink.com 1.10,2013-10-09 06:32:00,
2013-10-09 01:47:00,51.9,47.0,30.12,SSE,161,0.0,5.0,83,0.00,,,0.00,weatherlink.com 1.10,2013-10-09 06:47:00,
2013-10-09 02:02:00,51.4,47.0,30.12,SE,140,0.0,4.0,84,0.00,,,0.00,weatherlink.com 1.10,2013-10-09 07:02:00,
2013-10-09 02:18:00,51.1,47.0,30.12,SE,139,2.0,3.0,85,0.00,,,0.00,weatherlink.com 1.10,2013-10-09 07:18:00,
2013-10-09 02:33:00,50.6,47.0,30.12,SE,139,1.0,3.0,86,0.00,,,0.00,weatherlink.com 1.10,2013-10-09 07:33:00,
2013-10-09 02:48:00,50.2,47.0,30.12,SE,139,2.0,3.0,87,0.00,,,0.00,weatherlink.com 1.10,2013-10-09 07:48:00,
2013-10-09 03:03:00,49.9,46.0,30.11,SE,136,2.0,3.0,87,0.00,,,0.00,weatherlink.com 1.10,2013-10-09 08:03:00,
2013-10-09 03:18:00,49.4,46.0,30.12,SE,135,2.0,3.0,87,0.00,,,0.00,weatherlink.com 1.10,2013-10-09 08:18:00,
2013-10-09 03:33:00,49.0,46.0,30.11,SE,134,2.0,3.0,88,0.00,,,0.00,weatherlink.com 1.10,2013-10-09 08:33:00,
2013-10-09 03:48:00,48.6,45.0,30.12,SE,133,3.0,3.0,88,0.00,,,0.00,weatherlink.com 1.10,2013-10-09 08:48:00,
2013-10-09 04:03:00,48.6,45.0,30.11,SE,126,3.0,4.0,87,0.00,,,0.00,weatherlink.com 1.10,2013-10-09 09:03:00,
2013-10-09 04:18:00,48.3,45.0,30.11,ESE,118,3.0,5.0,87,0.00,,,0.00,weatherlink.com 1.10,2013-10-09 09:18:00,
2013-10-09 04:33:00,48.7,45.0,30.12,SE,128,1.0,5.0,86,0.00,,,0.00,weatherlink.com 1.10,2013-10-09 09:33:00,
2013-10-09 04:48:00,48.6,45.0,30.12,SE,128,1.0,4.0,86,0.00,,,0.00,weatherlink.com 1.10,2013-10-09 09:48:00,
2013-10-09 05:03:00,48.8,45.0,30.12,SE,127,2.0,3.0,86,0.00,,,0.00,weatherlink.com 1.10,2013-10-09 10:03:00,
2013-10-09 05:18:00,49.1,45.0,30.12,ESE,119,2.0,4.0,84,0.00,,,0.00,weatherlink.com 1.10,2013-10-09 10:18:00,
2013-10-09 05:33:00,48.7,44.0,30.12,ESE,113,2.0,4.0,85,0.00,,,0.00,weatherlink.com 1.10,2013-10-09 10:33:00,
2013-10-09 05:48:00,48.1,44.0,30.12,ESE,114,1.0,5.0,86,0.00,,,0.00,weatherlink.com 1.10,2013-10-09 10:48:00,
2013-10-09 06:03:00,48.2,44.0,30.12,ESE,114,1.0,3.0,86,0.00,,,0.00,weatherlink.com 1.10,2013-10-09 11:03:00,
2013-10-09 06:18:00,48.5,44.0,30.12,ESE,114,3.0,4.0,85,0.00,,,0.00,weatherlink.com 1.10,2013-10-09 11:18:00,
2013-10-09 06:33:00,48.8,45.0,30.13,ESE,116,1.0,4.0,85,0.00,,,0.00,weatherlink.com 1.10,2013-10-09 11:33:00,
2013-10-09 06:48:00,48.7,44.0,30.13,ESE,119,2.0,4.0,84,0.00,,,0.00,weatherlink.com 1.10,2013-10-09 11:48:00,
2013-10-09 07:03:00,48.4,44.0,30.14,ESE,123,3.0,4.0,85,0.00,,,0.00,weatherlink.com 1.10,2013-10-09 12:03:00,
2013-10-09 07:18:00,48.4,44.0,30.14,SE,124,3.0,4.0,86,0.00,,,0.00,weatherlink.com 1.10,2013-10-09 12:18:00,
2013-10-09 07:33:00,48.8,45.0,30.14,SE,125,2.0,3.0,86,0.00,,,0.00,weatherlink.com 1.10,2013-10-09 12:33:00,
2013-10-09 07:48:00,49.7,45.0,30.14,SE,125,0.0,3.0,85,0.00,,,0.00,weatherlink.com 1.10,2013-10-09 12:48:00,
2013-10-09 08:03:00,50.6,46.0,30.15,SE,125,0.0,3.0,84,0.00,,,0.00,weatherlink.com 1.10,2013-10-09 13:03:00,
2013-10-09 08:18:00,51.4,47.0,30.15,SE,125,2.0,3.0,84,0.00,,,0.00,weatherlink.com 1.10,2013-10-09 13:18:00,
2013-10-09 08:33:00,52.9,48.0,30.15,ESE,111,2.0,4.0,84,0.00,,,0.00,weatherlink.com 1.10,2013-10-09 13:33:00,
2013-10-09 08:48:00,54.7,49.0,30.15,SE,136,1.0,4.0,82,0.00,,,0.00,weatherlink.com 1.10,2013-10-09 13:48:00,
2013-10-09 09:03:00,56.1,50.0,30.16,SSE,155,2.0,6.0,79,0.00,,,0.00,weatherlink.com 1.10,2013-10-09 14:03:00,
2013-10-09 09:18:00,57.4,50.0,30.16,South,181,2.0,5.0,77,0.00,,,0.00,weatherlink.com 1.10,2013-10-09 14:18:00,
2013-10-09 09:33:00,58.1,50.0,30.16,South,169,1.0,7.0,75,0.00,,,0.00,weatherlink.com 1.10,2013-10-09 14:33:00,
2013-10-09 09:48:00,59.6,52.0,30.16,SE,144,5.0,6.0,76,0.00,,,0.00,weatherlink.com 1.10,2013-10-09 14:48:00,
2013-10-09 10:04:00,60.4,51.0,30.16,SSE,152,4.0,7.0,72,0.00,,,0.00,weatherlink.com 1.10,2013-10-09 15:04:00,
2013-10-09 10:19:00,61.7,53.0,30.17,SSE,158,2.0,7.0,72,0.00,,,0.00,weatherlink.com 1.10,2013-10-09 15:19:00,
2013-10-09 10:34:00,62.8,53.0,30.17,South,183,3.0,9.0,70,0.00,,,0.00,weatherlink.com 1.10,2013-10-09 15:34:00,
2013-10-09 10:49:00,63.6,52.0,30.17,SSE,167,4.0,8.0,67,0.00,,,0.00,weatherlink.com 1.10,2013-10-09 15:49:00,
2013-10-09 11:04:00,64.6,52.0,30.17,SSE,149,3.0,8.0,65,0.00,,,0.00,weatherlink.com 1.10,2013-10-09 16:04:00,
2013-10-09 11:19:00,65.4,52.0,30.17,South,175,2.0,7.0,63,0.00,,,0.00,weatherlink.com 1.10,2013-10-09 16:19:00,
2013-10-09 11:34:00,66.6,53.0,30.17,SW,236,3.0,7.0,61,0.00,,,0.00,weatherlink.com 1.10,2013-10-09 16:34:00,
2013-10-09 11:49:00,67.2,52.0,30.17,South,178,2.0,7.0,59,0.00,,,0.00,weatherlink.com 1.10,2013-10-09 16:49:00,
2013-10-09 12:04:00,68.3,52.0,30.16,SE,144,3.0,6.0,56,0.00,,,0.00,weatherlink.com 1.10,2013-10-09 17:04:00,
2013-10-09 12:19:00,69.2,53.0,30.16,SE,140,3.0,5.0,57,0.00,,,0.00,weatherlink.com 1.10,2013-10-09 17:19:00,
2013-10-09 12:34:00,70.2,53.0,30.15,SSE,150,3.0,6.0,55,0.00,,,0.00,weatherlink.com 1.10,2013-10-09 17:34:00,
2013-10-09 12:49:00,70.5,51.0,30.14,SSE,147,4.0,7.0,51,0.00,,,0.00,weatherlink.com 1.10,2013-10-09 17:49:00,
2013-10-09 13:04:00,70.3,50.0,30.14,ESE,117,3.0,7.0,48,0.00,,,0.00,weatherlink.com 1.10,2013-10-09 18:04:00,
2013-10-09 13:19:00,70.0,49.0,30.13,ESE,114,4.0,7.0,48,0.00,,,0.00,weatherlink.com 1.10,2013-10-09 18:19:00,
2013-10-09 13:34:00,71.0,51.0,30.12,SE,142,6.0,7.0,50,0.00,,,0.00,weatherlink.com 1.10,2013-10-09 18:34:00,
2013-10-09 13:49:00,71.7,50.0,30.11,South,188,2.0,8.0,47,0.00,,,0.00,weatherlink.com 1.10,2013-10-09 18:49:00,
2013-10-09 14:04:00,73.2,53.0,30.11,SE,140,3.0,6.0,50,0.00,,,0.00,weatherlink.com 1.10,2013-10-09 19:04:00,
2013-10-09 14:19:00,72.4,49.0,30.11,East,89,3.0,9.0,44,0.00,,,0.00,weatherlink.com 1.10,2013-10-09 19:19:00,
2013-10-09 14:34:00,72.1,49.0,30.10,ESE,123,2.0,9.0,44,0.00,,,0.00,weatherlink.com 1.10,2013-10-09 19:34:00,
2013-10-09 14:49:00,72.6,51.0,30.10,SE,138,5.0,8.0,46,0.00,,,0.00,weatherlink.com 1.10,2013-10-09 19:49:00,
2013-10-09 15:04:00,72.4,51.0,30.10,ESE,106,4.0,7.0,48,0.00,,,0.00,weatherlink.com 1.10,2013-10-09 20:04:00,
2013-10-09 15:35:00,73.8,52.0,30.09,ESE,111,5.0,8.0,47,0.00,,,0.00,weatherlink.com 1.10,2013-10-09 20:35:00,
2013-10-09 15:50:00,72.5,52.0,30.09,SE,133,3.0,10.0,49,0.00,,,0.00,weatherlink.com 1.10,2013-10-09 20:50:00,
2013-10-09 16:05:00,72.3,51.0,30.09,South,169,2.0,7.0,48,0.00,,,0.00,weatherlink.com 1.10,2013-10-09 21:05:00,
2013-10-09 16:20:00,72.3,52.0,30.09,ESE,103,4.0,7.0,49,0.00,,,0.00,weatherlink.com 1.10,2013-10-09 21:20:00,
2013-10-09 16:35:00,71.9,52.0,30.09,ESE,109,3.0,7.0,50,0.00,,,0.00,weatherlink.com 1.10,2013-10-09 21:35:00,
2013-10-09 16:50:00,71.6,52.0,30.09,SE,144,4.0,7.0,51,0.00,,,0.00,weatherlink.com 1.10,2013-10-09 21:50:00,
2013-10-09 17:05:00,71.8,54.0,30.09,SE,130,3.0,7.0,54,0.00,,,0.00,weatherlink.com 1.10,2013-10-09 22:05:00,
2013-10-09 17:20:00,72.0,54.0,30.09,SSE,158,4.0,7.0,54,0.00,,,0.00,weatherlink.com 1.10,2013-10-09 22:20:00,
2013-10-09 17:35:00,71.3,54.0,30.09,SE,140,2.0,8.0,55,0.00,,,0.00,weatherlink.com 1.10,2013-10-09 22:35:00,
2013-10-09 17:50:00,70.2,55.0,30.09,SE,143,3.0,5.0,58,0.00,,,0.00,weatherlink.com 1.10,2013-10-09 22:50:00,
2013-10-09 18:05:00,69.1,54.0,30.09,ESE,119,1.0,5.0,60,0.00,,,0.00,weatherlink.com 1.10,2013-10-09 23:05:00,
2013-10-09 18:20:00,68.2,55.0,30.09,ESE,121,2.0,3.0,62,0.00,,,0.00,weatherlink.com 1.10,2013-10-09 23:20:00,
2013-10-09 18:35:00,66.6,54.0,30.10,ESE,120,1.0,4.0,65,0.00,,,0.00,weatherlink.com 1.10,2013-10-09 23:35:00,
2013-10-09 18:50:00,64.8,54.0,30.10,ESE,120,2.0,3.0,68,0.00,,,0.00,weatherlink.com 1.10,2013-10-09 23:50:00,
2013-10-09 19:05:00,63.3,53.0,30.10,ESE,120,1.0,3.0,70,0.00,,,0.00,weatherlink.com 1.10,2013-10-10 00:05:00,
2013-10-09 19:20:00,62.1,53.0,30.10,ESE,120,0.0,3.0,73,0.00,,,0.00,weatherlink.com 1.10,2013-10-10 00:20:00,
2013-10-09 19:35:00,60.9,53.0,30.10,ESE,120,0.0,2.0,75,0.00,,,0.00,weatherlink.com 1.10,2013-10-10 00:35:00,
2013-10-09 19:50:00,60.0,53.0,30.10,ESE,120,2.0,2.0,77,0.00,,,0.00,weatherlink.com 1.10,2013-10-10 00:50:00,
2013-10-09 20:05:00,59.5,52.0,30.10,ESE,120,0.0,3.0,77,0.00,,,0.00,weatherlink.com 1.10,2013-10-10 01:05:00,
2013-10-09 20:20:00,59.3,52.0,30.10,ESE,120,0.0,1.0,76,0.00,,,0.00,weatherlink.com 1.10,2013-10-10 01:20:00,
2013-10-09 20:35:00,59.3,52.0,30.11,ESE,120,0.0,2.0,78,0.00,,,0.00,weatherlink.com 1.10,2013-10-10 01:35:00,
2013-10-09 20:50:00,58.9,52.0,30.10,ESE,120,1.0,3.0,78,0.00,,,0.00,weatherlink.com 1.10,2013-10-10 01:50:00,
2013-10-09 21:05:00,58.3,51.0,30.11,ESE,119,0.0,1.0,78,0.00,,,0.00,weatherlink.com 1.10,2013-10-10 02:05:00,
2013-10-09 21:20:00,58.3,51.0,30.11,ESE,119,1.0,2.0,78,0.00,,,0.00,weatherlink.com 1.10,2013-10-10 02:20:00,
2013-10-09 21:35:00,58.0,51.0,30.11,ESE,119,2.0,3.0,78,0.00,,,0.00,weatherlink.com 1.10,2013-10-10 02:35:00,
2013-10-09 21:50:00,57.4,51.0,30.11,ESE,121,2.0,5.0,79,0.00,,,0.00,weatherlink.com 1.10,2013-10-10 02:50:00,
2013-10-09 22:05:00,56.9,51.0,30.11,ESE,121,1.0,3.0,80,0.00,,,0.00,weatherlink.com 1.10,2013-10-10 03:05:00,
2013-10-09 22:20:00,56.9,51.0,30.11,ESE,121,1.0,3.0,81,0.00,,,0.00,weatherlink.com 1.10,2013-10-10 03:20:00,
2013-10-09 22:35:00,57.1,51.0,30.11,ESE,121,1.0,3.0,80,0.00,,,0.00,weatherlink.com 1.10,2013-10-10 03:35:00,
2013-10-09 23:05:00,57.2,52.0,30.11,ESE,116,4.0,4.0,82,0.00,,,0.00,weatherlink.com 1.10,2013-10-10 04:05:00,
2013-10-09 23:20:00,57.0,52.0,30.11,ESE,117,0.0,4.0,82,0.00,,,0.00,weatherlink.com 1.10,2013-10-10 04:20:00,
2013-10-09 23:35:00,56.9,52.0,30.11,SE,131,3.0,4.0,84,0.00,,,0.00,weatherlink.com 1.10,2013-10-10 04:35:00,
2013-10-09 23:50:00,56.7,52.0,30.11,SE,138,1.0,5.0,84,0.00,,,0.00,weatherlink.com 1.10,2013-10-10 04:50:00,